This is the latest recevied weather packets stored in our database for station/object W4TTU-1. If no packets are shown the sender has not sent any weather packets the latest 1 day(s).
| Time | Temp. | Humidity | Pressure | Rain* | Wind** | Luminosity | Snow |
|---|---|---|---|---|---|---|---|
| 1778003305 | 13.33° C | 31% | 845.7 hPa | 0 mm | 2.68 m/s, 270° | - | - |
| 1778002402 | 12.78° C | 32% | 845.8 hPa | 0 mm | 0.89 m/s, 270° | - | - |
| 1778001502 | 11.67° C | 32% | 845.8 hPa | 0 mm | 1.79 m/s, 270° | - | - |
| 1778000601 | 11.11° C | 33% | 845.9 hPa | 0 mm | 1.34 m/s, 270° | - | - |
| 1777999701 | 10° C | 33% | 846.2 hPa | 0 mm | 1.34 m/s, 270° | - | - |
| 1777998800 | 9.44° C | 33% | 846.3 hPa | 0 mm | 0 m/s | - | - |
| 1777996099 | 8.89° C | 33% | 846.6 hPa | 0 mm | 1.34 m/s, 270° | - | - |
| 1777995198 | 8.33° C | 35% | 846.7 hPa | 0 mm | 0.89 m/s, 270° | - | - |
| 1777994298 | 7.22° C | 35% | 846.7 hPa | 0 mm | 2.68 m/s, 270° | - | - |
| 1777993397 | 6.11° C | 34% | 846.8 hPa | 0 mm | 0.89 m/s, 270° | - | - |
| 1777992496 | 5.56° C | 33% | 846.9 hPa | 0 mm | 1.79 m/s, 270° | - | - |
| 1777991596 | 4.44° C | 33% | 847 hPa | 0 mm | 0.45 m/s, 270° | - | - |
| 1777990695 | 3.89° C | 32% | 847.2 hPa | 0 mm | 1.34 m/s, 270° | - | - |
| 1777989795 | 3.33° C | 31% | 847.3 hPa | 0 mm | 1.79 m/s, 270° | - | - |
| 1777988894 | 3.33° C | 30% | 847.3 hPa | 0 mm | 0.45 m/s, 270° | - | - |
| 1777987994 | 2.78° C | 30% | 847.2 hPa | 0 mm | 0 m/s | - | - |
| 1777987093 | 2.78° C | 30% | 847 hPa | 0 mm | 0 m/s | - | - |
| 1777986193 | 3.33° C | 30% | 846.9 hPa | 0 mm | 0 m/s | - | - |
| 1777985292 | 3.33° C | 30% | 846.7 hPa | 0 mm | 0 m/s | - | - |
| 1777984392 | 3.89° C | 29% | 846.6 hPa | 0 mm | 0.45 m/s, 270° | - | - |
| 1777983491 | 3.89° C | 30% | 846.6 hPa | 0 mm | 0.89 m/s, 270° | - | - |
| 1777982591 | 4.44° C | 30% | 846.3 hPa | 0 mm | 1.34 m/s, 270° | - | - |
| 1777981691 | 4.44° C | 29% | 846.3 hPa | 0 mm | 0.45 m/s, 270° | - | - |
| 1777980790 | 4.44° C | 30% | 846.1 hPa | 0 mm | 0.45 m/s, 270° | - | - |
| 1777979889 | 5° C | 29% | 846.1 hPa | 0 mm | 0 m/s | - | - |
* Rain since midnight (hover to see other rain measurements)
** Current wind speed in m/s (hover to see current wind gust speed)